H1 CPF 2 NER 2025 11 28 9 332 01 glonass142 H2 2001801 9142 45358 2025 11 28 0 0 0 2025 12 1 23 45 0 900 1 1 0 0 0 1 H9 10 0 61007 0.00000 0 6705392.880 -12431434.534 21270068.658 10 0 61007 900.00000 0 7559734.364 -9889554.339 22292052.042 10 0 61007 1800.00000 0 8635603.842 -7325316.990 22882337.313 10 0 61007 2700.00000 0 9915310.226 -4805355.188 23029448.481 10 0 61007 3600.00000 0 11369557.226 -2392549.263 22730462.327 10 0 61007 4500.00000 0 12958530.103 -143633.011 21991070.082 10 0 61007 5400.00000 0 14633438.654 1892937.112 20825476.214 10 0 61007 6300.00000 0 16338453.870 3678762.187 19256135.507 10 0 61007 7200.00000 0 18012959.154 5186857.387 17313332.390 10 0 61007 8100.00000 0 19594023.688 6402528.994 15034609.274 10 0 61007 9000.00000 0 21018995.766 7323735.642 12464053.454 10 0 61007 9900.00000 0 22228108.322 7960918.676 9651454.988 10 0 61007 10800.00000 0 23166987.678 8336308.641 6651350.624 10 0 61007 11700.00000 0 23788959.869 8482736.866 3521971.373 10 0 61007 12600.00000 0 24057056.811 8442002.036 324113.707 10 0 61007 13500.00000 0 23945636.610 8262860.772 -2880043.784 10 0 61007 14400.00000 0 23441548.256 7998727.407 -6028154.915 10 0 61007 15300.00000 0 22544789.983 7705180.952 -9058927.199 10 0 61007 16200.00000 0 21268631.883 7437385.732 -11913325.164 10 0 61007 17100.00000 0 19639196.193 7247536.174 -14535731.114 10 0 61007 18000.00000 0 17694511.746 7182435.397 -16875039.508 10 0 61007 18900.00000 0 15483081.533 7281311.624 -18885662.602 10 0 61007 19800.00000 0 13062023.089 7573966.317 -20528426.851 10 0 61007 20700.00000 0 10494859.576 8079333.689 -21771341.982 10 0 61007 21600.00000 0 7849054.215 8804513.608 -22590227.371 10 0 61007 22500.00000 0 5193391.383 9744319.619 -22969183.456 10 0 61007 23400.00000 0 2595314.081 10881361.758 -22900899.114 10 0 61007 24300.00000 0 118329.000 12186661.015 -22386789.334 10 0 61007 25200.00000 0 -2180412.737 13620769.704 -21436960.954 10 0 61007 26100.00000 0 -4252258.693 15135350.487 -20070007.611 10 0 61007 27000.00000 0 -6058833.566 16675147.426 -18312638.490 10 0 61007 27900.00000 0 -7573380.059 18180265.859 -16199148.604 10 0 61007 28800.00000 0 -8781607.747 19588664.903 -13770741.549 10 0 61007 29700.00000 0 -9682016.475 20838757.484 -11074718.455 10 0 61007 30600.00000 0 -10285682.921 21872008.360 -8163549.507 10 0 61007 31500.00000 0 -10615521.615 22635420.815 -5093846.707 10 0 61007 32400.00000 0 -10705053.758 23083807.516 -1925258.406 10 0 61007 33300.00000 0 -10596737.745 23181750.363 1280692.401 10 0 61007 34200.00000 0 -10339933.583 22905167.335 4461803.022 10 0 61007 35100.00000 0 -9988588.423 22242421.074 7556395.801 10 0 61007 36000.00000 0 -9598741.839 21194923.277 10504509.291 10 0 61007 36900.00000 0 -9225956.583 19777210.092 13249052.971 10 0 61007 37800.00000 0 -8922783.252 18016485.808 15736903.665 10 0 61007 38700.00000 0 -8736365.436 15951654.089 17919923.282 10 0 61007 39600.00000 0 -8706285.686 13631877.084 19755879.165 10 0 61007 40500.00000 0 -8862742.311 11114721.984 21209250.430 10 0 61007 41400.00000 0 -9225133.090 8463971.256 22251905.926 10 0 61007 42300.00000 0 -9801105.042 5747186.362 22863641.760 10 0 61007 43200.00000 0 -10586110.139 3033124.575 23032568.909 10 0 61007 44100.00000 0 -11563486.038 389114.331 22755343.962 10 0 61007 45000.00000 0 -12705059.340 -2121503.732 22037238.629 10 0 61007 45900.00000 0 -13972247.406 -4441765.635 20892046.400 10 0 61007 46800.00000 0 -15317614.207 -6523205.127 19341827.373 10 0 61007 47700.00000 0 -16686816.742 -8327620.005 17416495.108 10 0 61007 48600.00000 0 -18020862.163 -9828411.036 15153252.119 10 0 61007 49500.00000 0 -19258582.432 -11011438.149 12595883.439 10 0 61007 50400.00000 0 -20339223.680 -11875358.253 9793920.522 10 0 61007 51300.00000 0 -21205042.048 -12431430.503 6801690.429 10 0 61007 52200.00000 0 -21803796.804 -12702796.946 3677267.747 10 0 61007 53100.00000 0 -22091035.164 -12723268.629 481349.140 10 0 61007 54000.00000 0 -22032071.437 -12535668.200 -2723927.778 10 0 61007 54900.00000 0 -21603575.541 -12189799.129 -5876197.912 10 0 61007 55800.00000 0 -20794702.125 -11740127.764 -8914090.158 10 0 61007 56700.00000 0 -19607710.872 -11243277.032 -11778432.119 10 0 61007 57600.00000 0 -18058050.046 -10755438.834 -14413413.474 10 0 61007 58500.00000 0 -16173898.245 -10329815.912 -16767684.114 10 0 61007 59400.00000 0 -13995182.419 -10014202.760 -18795364.604 10 0 61007 60300.00000 0 -11572112.493 -9848809.255 -20456948.373 10 0 61007 61200.00000 0 -8963293.615 -9864420.249 -21720077.395 10 0 61007 62100.00000 0 -6233494.860 -10080969.893 -22560175.893 10 0 61007 63000.00000 0 -3451167.700 -10506591.632 -22960929.609 10 0 61007 63900.00000 0 -685818.038 -11137184.447 -22914601.423 10 0 61007 64800.00000 0 1994658.470 -11956513.768 -22422177.483 10 0 61007 65700.00000 0 4526566.760 -12936842.764 -21493341.419 10 0 61007 66600.00000 0 6852820.678 -14040067.095 -20146277.652 10 0 61007 67500.00000 0 8925069.490 -15219304.887 -18407308.168 10 0 61007 68400.00000 0 10705454.929 -16420874.457 -16310370.374 10 0 61007 69300.00000 0 12167926.765 -17586575.890 -13896346.810 10 0 61007 70200.00000 0 13299063.678 -18656179.879 -11212260.309 10 0 61007 71100.00000 0 14098367.104 -19570018.521 -8310350.867 10 0 61007 72000.00000 0 14578017.930 -20271568.640 -5247052.781 10 0 61007 72900.00000 0 14762108.519 -20709918.645 -2081892.515 10 0 61007 73800.00000 0 14685384.547 -20842015.085 1123670.794 10 0 61007 74700.00000 0 14391551.549 -20634594.468 4307439.206 10 0 61007 75600.00000 0 13931219.166 -20065719.438 7407680.831 10 0 61007 76500.00000 0 13359570.910 -19125855.111 10364322.247 10 0 61007 77400.00000 0 12733858.430 -17818440.762 13120105.594 10 0 61007 78300.00000 0 12110826.126 -16159933.213 15621688.404 10 0 61007 79200.00000 0 11544174.388 -14179320.165 17820665.721 10 0 61007 80100.00000 0 11082167.765 -11917123.654 19674495.683 10 0 61007 81000.00000 0 10765487.866 -9423934.636 21147311.843 10 0 61007 81900.00000 0 10625420.433 -6758538.831 22210607.725 10 0 61007 82800.00000 0 10682451.987 -3985710.484 22843781.456 10 0 61007 83700.00000 0 10945334.441 -1173764.092 23034530.868 10 0 61007 84600.00000 0 11410656.798 1608036.130 22779091.977 10 0 61007 85500.00000 0 12062942.213 4292103.446 22082316.372 10 0 61008 0.00000 0 12875267.006 6815085.144 20957585.888 10 0 61008 900.00000 0 13810377.308 9120245.319 19426564.763 10 0 61008 1800.00000 0 14822256.766 11159572.974 17518794.634 10 0 61008 2700.00000 0 15858082.474 12895533.249 15271136.814 10 0 61008 3600.00000 0 16860487.372 14302386.062 12727072.590 10 0 61008 4500.00000 0 17770035.556 15367018.710 9935873.134 10 0 61008 5400.00000 0 18527807.015 16089257.352 6951653.922 10 0 61008 6300.00000 0 19077983.145 16481644.050 3832331.026 10 0 61008 7200.00000 0 19370323.678 16568688.410 638498.997 10 0 61008 8100.00000 0 19362429.602 16385625.087 -2567747.965 10 0 61008 9000.00000 0 19021695.194 15976729.440 -5724028.379 10 0 61008 9900.00000 0 18326864.990 15393262.617 -8768895.059 10 0 61008 10800.00000 0 17269128.082 14691133.388 -11643041.152 10 0 61008 11700.00000 0 15852701.583 13928376.328 -14290466.052 10 0 61008 12600.00000 0 14094876.842 13162554.021 -16659577.262 10 0 61008 13500.00000 0 12025524.880 12448194.247 -18704205.645 10 0 61008 14400.00000 0 9686080.540 11834371.696 -20384513.406 10 0 61008 15300.00000 0 7128047.121 11362537.467 -21667776.403 10 0 61008 16200.00000 0 4411083.574 11064688.907 -22529025.159 10 0 61008 17100.00000 0 1600754.035 10961957.670 -22951531.982 10 0 61008 18000.00000 0 -1233966.369 11063675.877 -22927134.779 10 0 61008 18900.00000 0 -4023325.297 11366959.734 -22456391.577 10 0 61008 19800.00000 0 -6699456.807 11856827.872 -21548563.161 10 0 61008 20700.00000 0 -9198963.901 12506848.892 -20221424.673 10 0 61008 21600.00000 0 -11465312.787 13280290.073 -18500910.393 10 0 61008 22500.00000 0 -13450939.780 14131718.028 -16420599.181 10 0 61008 23400.00000 0 -15118983.957 15008982.965 -14021051.164 10 0 61008 24300.00000 0 -16444574.653 15855502.056 -11349009.169 10 0 61008 25200.00000 0 -17415621.677 16612744.887 -8456481.003 10 0 61008 26100.00000 0 -18033077.112 17222815.579 -5399721.031 10 0 61008 27000.00000 0 -18310659.855 17631022.195 -2238131.423 10 0 61008 27900.00000 0 -18274056.576 17788324.902 966895.072 10 0 61008 28800.00000 0 -17959634.678 17653559.582 4153167.917 10 0 61008 29700.00000 0 -17412723.199 17195343.355 7258903.701 10 0 61008 30600.00000 0 -16685535.376 16393582.007 10223919.797 10 0 61008 31500.00000 0 -15834821.323 15240516.213 12990793.779 10 0 61008 32400.00000 0 -14919350.091 13741262.823 15505966.635 10 0 61008 33300.00000 0 -13997327.040 11913828.542 17720769.217 10 0 61008 34200.00000 0 -13123854.701 9788595.246 19592352.991 10 0 61008 35100.00000 0 -12348543.041 7407297.863 21084508.295 10 0 61008 36000.00000 0 -11713368.501 4821536.496 22168355.439 10 0 61008 36900.00000 0 -11250870.621 2090883.484 22822896.405 10 0 61008 37800.00000 0 -10982760.984 -719337.582 23035417.383 10 0 61008 38700.00000 0 -10919002.149 -3540510.513 22801734.964 10 0 61008 39600.00000 0 -11057394.917 -6303322.796 22126281.368 10 0 61008 40500.00000 0 -11383691.397 -8940393.744 21022026.855 10 0 61008 41400.00000 0 -11872229.714 -11388827.305 19510240.077 10 0 61008 42300.00000 0 -12487064.676 -13592585.003 17620089.976 10 0 61008 43200.00000 0 -13183548.074 -15504581.547 15388095.589 10 0 61008 44100.00000 0 -13910293.451 -17088416.586 12857432.928 10 0 61008 45000.00000 0 -14611443.763 -18319670.685 10077110.925 10 0 61008 45900.00000 0 -15229147.230 -19186711.310 7101031.145 10 0 61008 46800.00000 0 -15706137.393 -19690974.776 3986948.473 10 0 61008 47700.00000 0 -15988308.333 -19846711.850 795352.422 10 0 61008 48600.00000 0 -16027175.617 -19680207.249 -2411709.392 10 0 61008 49500.00000 0 -15782117.774 -19228505.592 -5571842.460 10 0 61008 50400.00000 0 -15222301.970 -18537697.400 -8623526.997 10 0 61008 51300.00000 0 -14328210.597 -17660837.673 -11507325.251 10 0 61008 52200.00000 0 -13092702.272 -16655585.459 -14167049.887 10 0 61008 53100.00000 0 -11521560.460 -15581664.857 -16550869.449 10 0 61008 54000.00000 0 -9633504.750 -14498255.657 -18612328.313 10 0 61008 54900.00000 0 -7459662.711 -13461424.823 -20311260.325 10 0 61008 55800.00000 0 -5042523.274 -12521708.197 -21614577.623 10 0 61008 56700.00000 0 -2434414.645 -11721945.273 -22496918.881 10 0 61008 57600.00000 0 304430.127 -11095458.856 -22941144.224 10 0 61008 58500.00000 0 3108139.291 -10664656.562 -22938667.230 10 0 61008 59400.00000 0 5907705.784 -10440112.946 -22489617.872 10 0 61008 60300.00000 0 8633623.474 -10420170.435 -21602833.624 10 0 61008 61200.00000 0 11218546.406 -10591075.135 -20295679.405 10 0 61008 62100.00000 0 13599860.422 -10927640.773 -18593700.413 10 0 61008 63000.00000 0 15722060.395 -11394411.660 -16530115.162 10 0 61008 63900.00000 0 17538834.619 -11947274.457 -14145159.179 10 0 61008 64800.00000 0 19014770.375 -12535449.561 -11485292.707 10 0 61008 65700.00000 0 20126610.780 -13103777.019 -8602288.414 10 0 61008 66600.00000 0 20864011.955 -13595199.549 -5552217.470 10 0 61008 67500.00000 0 21229770.640 -13953337.111 -2394354.250 10 0 61008 68400.00000 0 21239514.668 -14125043.830 809978.534 10 0 61008 69300.00000 0 20920871.225 -14062839.085 3998601.386 10 0 61008 70200.00000 0 20312149.611 -13727110.109 7109682.892 10 0 61008 71100.00000 0 19460595.395 -13087993.347 10082934.480 10 0 61008 72000.00000 0 18420290.471 -12126855.520 12860772.067 10 0 61008 72900.00000 0 17249787.945 -10837312.239 15389422.581 10 0 61008 73800.00000 0 16009581.427 -9225741.445 17619954.691 10 0 61008 74700.00000 0 14759514.687 -7311269.956 19509214.752 10 0 61008 75600.00000 0 13556239.678 -5125233.186 21020650.982 10 0 61008 76500.00000 0 12450828.483 -2710129.706 22125011.161 10 0 61008 77400.00000 0 11486638.098 -118113.009 22800901.415 10 0 61008 78300.00000 0 10697516.276 2590918.367 23035196.236 10 0 61008 79200.00000 0 10106422.508 5351554.852 22823292.407 10 0 61008 80100.00000 0 9724521.106 8095343.220 22169202.112 10 0 61008 81000.00000 0 9550783.983 10753386.982 21085483.229 10 0 61008 81900.00000 0 9572119.787 13258973.760 19593007.468 10 0 61008 82800.00000 0 9764024.382 15550122.191 17720569.797 10 0 61008 83700.00000 0 10091726.117 17571943.747 15504345.419 10 0 61008 84600.00000 0 10511778.624 19278722.048 12987203.320 10 0 61008 85500.00000 0 10974035.088 20635623.288 10217888.255 10 0 61009 0.00000 0 11423921.517 21619966.290 7250086.019 10 0 61009 900.00000 0 11804913.817 22221999.061 4141387.465 10 0 61009 1800.00000 0 12061113.512 22445147.520 952174.854 10 0 61009 2700.00000 0 12139813.579 22305726.982 -2255553.357 10 0 61009 3600.00000 0 11993944.319 21832126.587 -5419392.242 10 0 61009 4500.00000 0 11584294.604 21063501.169 -8477752.000 10 0 61009 5400.00000 0 10881412.748 20048025.501 -11371066.460 10 0 61009 6300.00000 0 9867104.620 18840784.694 -14042963.866 10 0 61009 7200.00000 0 8535463.652 17501390.249 -16441375.928 10 0 61009 8100.00000 0 6893387.273 16091423.029 -18519562.444 10 0 61009 9000.00000 0 4960556.181 14671811.822 -20237030.597 10 0 61009 9900.00000 0 2768875.825 13300258.873 -21560330.310 10 0 61009 10800.00000 0 361402.342 12028821.573 -22463709.711 10 0 61009 11700.00000 0 -2209202.881 10901752.648 -22929617.818 10 0 61009 12600.00000 0 -4882625.815 9953689.933 -22949044.698 10 0 61009 13500.00000 0 -7593178.277 9208271.723 -22521692.772 10 0 61009 14400.00000 0 -10272307.239 8677235.373 -21655976.328 10 0 61009 15300.00000 0 -12851230.311 8360036.170 -20368849.773 10 0 61009 16200.00000 0 -15263587.544 8244001.298 -18685468.496 10 0 61009 17100.00000 0 -17447999.187 8305011.005 -16638689.529 10 0 61009 18000.00000 0 -19350423.064 8508676.750 -14268422.287 10 0 61009 18900.00000 0 -20926213.851 8811965.113 -11620842.622 10 0 61009 19800.00000 0 -22141799.186 9165197.533 -8747486.035 10 0 61009 20700.00000 0 -22975903.727 9514340.124 -5704238.292 10 0 61009 21600.00000 0 -23420271.432 9803485.831 -2550243.646 10 0 61009 22500.00000 0 -23479857.439 9977423.230 653247.645 10 0 61009 23400.00000 0 -23172483.228 9984182.926 3844069.634 10 0 61009 24300.00000 0 -22527971.213 9777453.747 6960345.480 10 0 61009 25200.00000 0 -21586796.594 9318766.675 9941683.292 10 0 61009 26100.00000 0 -20398314.281 8579354.526 12730339.974 10 0 61009 27000.00000 0 -19018636.123 7541609.193 15272331.007 10 0 61009 27900.00000 0 -17508247.825 6200075.232 17518465.405 10 0 61009 28800.00000 0 -15929465.384 4561937.983 19425286.762 10 0 61009 29700.00000 0 -14343836.981 2646985.402 20955903.309 10 0 61009 30600.00000 0 -12809598.136 487044.425 22080692.136 10 0 61009 31500.00000 0 -11379285.358 -1875085.681 22777865.037 10 0 61009 32400.00000 0 -10097606.714 -4387160.043 23033885.987 10 0 61009 33300.00000 0 -8999656.960 -6989413.264 22843732.798 10 0 61009 34200.00000 0 -8109550.722 -9616804.815 22210998.106 10 0 61009 35100.00000 0 -7439530.004 -12201493.529 21147827.554 10 0 61009 36000.00000 0 -6989582.856 -14675440.426 19674695.703 10 0 61009 36900.00000 0 -6747589.108 -16973033.445 17820022.998 10 0 61009 37800.00000 0 -6689987.287 -19033626.355 15619639.911 10 0 61009 38700.00000 0 -6782935.257 -20803887.118 13116107.169 10 0 61009 39600.00000 0 -6983916.422 -22239858.235 10357903.795 10 0 61009 40500.00000 0 -7243724.489 -23308643.039 7398497.408 10 0 61009 41400.00000 0 -7508743.514 -23989646.988 4295313.781 10 0 61009 42300.00000 0 -7723427.091 -24275321.182 1108625.030 10 0 61009 43200.00000 0 -7832871.554 -24171376.056 -2099622.149 10 0 61009 44100.00000 0 -7785373.598 -23696455.357 -5267015.231 10 0 61009 45000.00000 0 -7534862.837 -22881283.406 -8331897.407 10 0 61009 45900.00000 0 -7043104.743 -21767321.025 -11234577.248 10 0 61009 46800.00000 0 -6281578.866 -20404986.608 -13918501.837 10 0 61009 47700.00000 0 -5232950.911 -18851517.412 -16331369.305 10 0 61009 48600.00000 0 -3892074.440 -17168561.628 -18426158.027 10 0 61009 49500.00000 0 -2266478.022 -15419603.267 -20162051.457 10 0 61009 50400.00000 0 -376315.643 -13667328.953 -21505239.893 10 0 61009 51300.00000 0 1746218.950 -11971048.109 -22429583.078 10 0 61009 52200.00000 0 4057990.438 -10384275.411 -22917120.605 10 0 61009 53100.00000 0 6506487.354 -8952577.362 -22958420.189 10 0 61009 54000.00000 0 9031789.631 -7711773.258 -22552757.355 10 0 61009 54900.00000 0 11568856.259 -6686565.513 -21708123.373 10 0 61009 55800.00000 0 14050037.481 -5889655.978 -20441061.849 10 0 61009 56700.00000 0 16407706.653 -5321384.018 -18776337.631 10 0 61009 57600.00000 0 18576901.929 -4969900.022 -16746445.087 10 0 61009 58500.00000 0 20497867.593 -4811865.244 -14390965.884 10 0 61009 59400.00000 0 22118389.239 -4813646.672 -11755789.364 10 0 61009 60300.00000 0 23395825.794 -4932954.760 -8892211.269 10 0 61009 61200.00000 0 24298754.212 -5120853.237 -5855928.944 10 0 61009 62100.00000 0 24808159.112 -5324054.715 -2705953.133 10 0 61009 63000.00000 0 24918118.849 -5487403.946 496541.998 10 0 61009 63900.00000 0 24635960.670 -5556442.973 3689407.807 10 0 61009 64800.00000 0 23981879.955 -5479949.260 6810725.748 10 0 61009 65700.00000 0 22988040.862 -5212339.369 9800004.164 10 0 61009 66600.00000 0 21697197.303 -4715836.732 12599344.214 10 0 61009 67500.00000 0 20160892.872 -3962312.217 15154552.820 10 0 61009 68400.00000 0 18437315.626 -2934720.153 17416181.799 10 0 61009 69300.00000 0 16588897.503 -1628069.427 19340473.994 10 0 61009 70200.00000 0 14679758.347 -49888.733 20890199.213 10 0 61009 71100.00000 0 12773100.458 1779834.061 22035364.984 10 0 61009 72000.00000 0 10928661.288 3829236.813 22753789.484 10 0 61009 72900.00000 0 9200329.149 6055669.104 23031526.483 10 0 61009 73800.00000 0 7634019.922 8407235.781 22863134.752 10 0 61009 74700.00000 0 6265901.939 10824735.642 22251786.943 10 0 61009 75600.00000 0 5121041.903 13243916.667 21209215.674 10 0 61009 76500.00000 0 4212527.480 15597956.066 19755497.241 10 0 61009 77400.00000 0 3541102.744 17820063.769 17918676.156 10 0 61009 78300.00000 0 3095331.519 19846102.610 15734236.487 10 0 61009 79200.00000 0 2852281.945 21617117.088 13244428.785 10 0 61009 80100.00000 0 2778703.856 23081665.842 10497464.208 10 0 61009 81000.00000 0 2832649.872 24197860.451 7546590.149 10 0 61009 81900.00000 0 2965472.264 24935024.861 4449064.250 10 0 61009 82800.00000 0 3124111.433 25274905.100 1265046.091 10 0 61009 83700.00000 0 3253579.155 25212377.462 -1943572.148 10 0 61009 84600.00000 0 3299530.918 24755624.296 -5114373.126 10 0 61009 85500.00000 0 3210817.505 23925768.901 -8185635.771 10 0 61010 0.00000 0 2941906.406 22755984.160 -11097545.771 10 0 61010 900.00000 0 2455068.691 21290111.155 -13793372.023 10 0 61010 1800.00000 0 1722237.291 19580847.304 -16220581.047 10 0 61010 2700.00000 0 726455.694 17687578.281 -18331871.785 10 0 61010 3600.00000 0 -537145.724 15673946.737 -20086105.724 10 0 61010 4500.00000 0 -2060888.781 13605260.007 -21449115.049 10 0 61010 5400.00000 0 -3824622.845 11545846.334 -22394372.397 10 0 61010 6300.00000 0 -5796334.508 9556471.020 -22903508.933 10 0 61010 7200.00000 0 -7933266.805 7691921.204 -22966670.735 10 0 61010 8100.00000 0 -10183501.626 5998860.404 -22582706.783 10 0 61010 9000.00000 0 -12487939.307 4514042.316 -21759185.304 10 0 61010 9900.00000 0 -14782592.644 3262957.888 -20512238.635 10 0 61010 10800.00000 0 -17001099.334 2258971.098 -18866240.184 10 0 61010 11700.00000 0 -19077347.738 1502978.076 -16853320.345 10 0 61010 12600.00000 0 -20948106.109 983602.020 -14512731.362 10 0 61010 13500.00000 0 -22555545.429 677913.623 -11890074.109 10 0 61010 14400.00000 0 -23849550.580 552644.647 -9036402.383 10 0 61010 15300.00000 0 -24789723.569 565841.483 -6007222.760 10 0 61010 16200.00000 0 -25346995.637 668887.153 -2861410.007 10 0 61010 17100.00000 0 -25504781.644 808804.879 339940.364 10 0 61010 18000.00000 0 -25259629.434 930744.724 3534699.655 10 0 61010 18900.00000 0 -24621338.143 980547.439 6660910.322 10 0 61010 19800.00000 0 -23612541.682 907276.750 9657983.680 10 0 61010 20700.00000 0 -22267775.882 665612.992 12467867.867 10 0 61010 21600.00000 0 -20632069.213 218007.211 15036163.886 10 0 61010 22500.00000 0 -18759116.497 -463494.905 17313168.842 10 0 61010 23400.00000 0 -16709112.086 -1395835.818 19254827.071 10 0 61010 24300.00000 0 -14546332.635 -2583995.222 20823571.872 10 0 61010 25200.00000 0 -12336569.533 -4020545.518 21989042.762 10 0 61010 26100.00000 0 -10144516.900 -5685732.931 22728665.442 10 0 61010 27000.00000 0 -8031222.537 -7548081.854 23028084.219 10 0 61010 27900.00000 0 -6051706.392 -9565498.606 22881439.180 10 0 61010 28800.00000 0 -4252844.156 -11686830.255 22291483.002 10 0 61010 29700.00000 0 -2671602.686 -13853815.496 21269534.977 10 0 61010 30600.00000 0 -1333699.578 -16003348.314 19835272.563 10 0 61010 31500.00000 0 -252742.002 -18069962.021 18016363.501 10 0 61010 32400.00000 0 570119.796 -19988431.792 15847944.367 10 0 61010 33300.00000 0 1146009.976 -21696388.394 13371954.203 10 0 61010 34200.00000 0 1497623.160 -23136834.727 10636334.738 10 0 61010 35100.00000 0 1658028.383 -24260460.136 7694111.343 10 0 61010 36000.00000 0 1669031.045 -25027655.321 4602371.532 10 0 61010 36900.00000 0 1579161.777 -25410142.544 1421160.166 10 0 61010 37800.00000 0 1441377.248 -25392151.564 -1787687.438 10 0 61010 38700.00000 0 1310570.546 -24971090.570 -4961751.627 10 0 61010 39600.00000 0 1240997.300 -24157682.492 -8039249.704 10 0 61010 40500.00000 0 1283727.675 -22975559.751 -10960247.733 10 0 61010 41400.00000 0 1484233.623 -21460333.445 -13667838.198 10 0 61010 42300.00000 0 1880215.251 -19658175.522 -16109259.385 10 0 61010 43200.00000 0 2499760.065 -17623973.211 -18236933.568 10 0 61010 44100.00000 0 3359914.737 -15419133.294 -20009402.844 10 0 61010 45000.00000 0 4465731.373 -13109128.685 -21392143.608 10 0 61010 45900.00000 0 5809829.985 -10760890.633 -22358243.341 10 0 61010 46800.00000 0 7372496.798 -8440156.255 -22888926.339 10 0 61010 47700.00000 0 9122315.157 -6208882.769 -22973918.154 10 0 61010 48600.00000 0 11017303.103 -4122836.704 -22611641.914 10 0 61010 49500.00000 0 13006510.233 -2229458.600 -21809243.061 10 0 61010 50400.00000 0 15032006.926 -566091.881 -20582442.537 10 0 61010 51300.00000 0 17031182.508 841351.128 -18955221.795 10 0 61010 52200.00000 0 18939255.925 1979231.715 -16959346.345 10 0 61010 53100.00000 0 20691893.536 2846502.333 -14633737.689 10 0 61010 54000.00000 0 22227824.268 3454488.003 -12023706.478 10 0 61010 54900.00000 0 23491342.539 3826142.968 -9180062.378 10 0 61010 55800.00000 0 24434594.234 3994816.093 -6158118.584 10 0 61010 56700.00000 0 25019550.271 4002579.122 -3016610.912 10 0 61010 57600.00000 0 25219585.596 3898190.143 183447.039 10 0 61010 58500.00000 0 25020598.135 3734779.711 3379949.944 10 0 61010 59400.00000 0 24421621.683 3567358.495 6510904.729 10 0 61010 60300.00000 0 23434907.934 3450252.372 9515629.074 10 0 61010 61200.00000 0 22085475.099 3434573.657 12335921.304 10 0 61010 62100.00000 0 20410142.681 3565835.160 14917179.450 10 0 61010 63000.00000 0 18456093.182 3881807.472 17209448.520 10 0 61010 63900.00000 0 16279020.937 4410709.431 19168376.597 10 0 61010 64800.00000 0 13940944.976 5169807.615 20756062.355 10 0 61010 65700.00000 0 11507776.326 6164483.629 21941778.784 10 0 61010 66600.00000 0 9046739.965 7387808.512 22702560.194 10 0 61010 67500.00000 0 6623757.263 8820642.708 23023642.108 10 0 61010 68400.00000 0 4300896.125 10432258.453 22898746.185 10 0 61010 69300.00000 0 2133993.194 12181459.946 22330204.952 10 0 61010 70200.00000 0 170545.375 14018156.238 21328923.775 10 0 61010 71100.00000 0 -1552043.024 15885323.082 19914180.259 10 0 61010 72000.00000 0 -3007785.604 17721273.723 18113263.981 10 0 61010 72900.00000 0 -4182957.205 19462145.524 15960962.301 10 0 61010 73800.00000 0 -5076420.422 21044499.972 13498900.756 10 0 61010 74700.00000 0 -5699421.796 22407928.225 10774749.412 10 0 61010 75600.00000 0 -6074866.149 23497553.538 7841309.208 10 0 61010 76500.00000 0 -6236099.404 24266325.509 4755494.977 10 0 61010 77400.00000 0 -6225250.999 24677009.136 1577234.184 10 0 61010 78300.00000 0 -6091205.852 24703784.017 -1631697.463 10 0 61010 79200.00000 0 -5887291.833 24333384.986 -4808880.778 10 0 61010 80100.00000 0 -5668781.164 23565734.615 -7892474.194 10 0 61010 81000.00000 0 -5490312.425 22414039.424 -10822426.561 10 0 61010 81900.00000 0 -5403343.584 20904344.348 -13541656.991 10 0 61010 82800.00000 0 -5453745.364 19074563.102 -15997177.568 10 0 61010 83700.00000 0 -5679638.441 16973024.489 -18141135.972 10 0 61010 84600.00000 0 -6109567.570 14656595.253 -19931756.736 10 0 61010 85500.00000 0 -6761091.395 12188458.248 -21334162.019 99